www.pogodaiklimat.ru

Погода и климат >> Архив погоды >> Мексика >> Choix


ПОГОДА в Choix

  • Прогноз погоды в Choix
  • Монитор погоды в Choix
  • Климат города

АРХИВ ПОГОДЫ в Choix

Время (UTC), дата Ветер
(напр.,м/с)
 
Видим.   Явления Облачность Т
(С)
Тd
(С)
f
(%)
Тe
(С)
Тes
(С)
Комфортность P
(гПа)
Po
(гПа)
Тmin
(С)
Tmax
(С)
R
(мм)
R24
(мм)
S
(см)
03 12.12 ЮЗ 1 2000 м ясно +19.8 +15.3 75 +23 +23 комфорт 1016.0 989.0
06 12.12 штиль 0 2000 м ясно +16.3 +12.8 80 +16 +16 1016.8 989.7 +15.3 +34.2
09 12.12 штиль 0 2000 м ясно +13.6 +10.7 83 +13 +13 1017.1 989.6
15 12.12 ЮЗ 1 30 км ясно +12.7 +9.3 80 +13 +14 1017.6 989.4
18 12.12 ЮЗ 1 30 км ясно +27.7 +20.8 66 +35 +44 очень
душно
1016.4 988.4 +11.2 +27.7
21 12.12 ЮЗ 1 30 км 8/0
[Cs]
+34.8 +25.1 57 +48 +55 опасность
перегрева
1011.7 984.2
00 13.12 штиль 0 30 км 10/0
[Cs]
+27.2 +21.6 71 +35 +35 очень
душно
1010.7 983.7 +11.2 +34.9
03 13.12 штиль 0 2000 м 10/0
[Cs]
+21.1 +16.7 76 +25 +25 комфорт 1011.1 984.3
06 13.12 штиль 0 2000 м ясно +17.2 +13.6 79 +17 +17 1011.3 984.3 +11.2 +34.9
09 13.12 штиль 0 2000 м ясно +15.3 +12.5 83 +15 +15 1012.1 984.8
18 13.12 штиль 0 30 км 6/6 750 м
[Sc diur, vesp]
+25.7 +19.5 69 +31 +35 очень
душно
1014.9 987.0 +12.1 +25.7
00 14.12 штиль 0 30 км 9/9 600 м
[St]
+24.7 +17.3 63 +29 +29 душно 1011.8 984.6 +12.1 +31.0
03 14.12 штиль 0 2000 м 9/9 750 м
[St]
+20.6 +15.2 71 +23 +23 комфорт 1013.0 985.9
06 14.12 штиль 0 2000 м 6/6 750 м
[St]
+17.9 +13.2 74 +18 +18 1013.6 986.4 +12.1 +31.0
12 14.12 штиль 0 2000 м ясно +16.4 +13.6 84 +16 +16 1012.8 985.2 +16.2 +31.0
15 14.12 штиль 0 30 км 6/6 600 м
[Sc]
+15.3 +13.3 88 +15 +15 1014.2 986.4
18 14.12 штиль 0 30 км 5/5 600 м
[Sc]
+21.3 +16.6 75 +25 +30 комфорт 1015.1 987.3 +15.1 +21.5
00 15.12 ЮВ 1 30 км 5/5 750 м
[Sc diur, vesp]
+24.0 +21.8 88 +31 +31 очень
душно
1012.6 984.0 +10.4 +28.0
03 15.12 штиль 0 2000 м 5/5 750 м
[Sc diur, vesp]
+19.0 +16.6 86 +20 +20 1012.7 985.4
06 15.12 штиль 0 2000 м 5/5 750 м
[Sc diur, vesp]
+18.2 +15.7 85 +18 +18 1013.3 985.9 +15.1 +26.0
09 15.12 штиль 0 2000 м 5/5 750 м
[Sc diur, vesp]
+13.0 +12.6 97 +12 +12 1013.6 986.0
12 15.12 СВ 1 30 км ясно +29.6 +26.7 84 +46 +46 опасность
перегрева
1010.0 982.7
18 15.12 штиль 0 30 км 5/5 750 м
[Sc diur, vesp]
+28.8 +24.6 78 +41 +46 опасность
перегрева
1012.8 985.4 +13.0 +29.0
21 15.12 СВ 1 30 км ясно +29.6 +26.7 84 +46 +54 опасность
перегрева
1010.0 982.7
00 16.12 штиль 0 30 км 5/5 600 м
[]
+23.8 +20.7 83 +30 +30 очень
душно
1009.4 982.4 +11.8 +30.0
03 16.12 штиль 0 2000 м 5/5 750 м
[Sc diur, vesp]
+20.9 +16.5 76 +24 +24 комфорт 1011.5 984.6
06 16.12 С 2 2000 м 6/6 750 м
[Sc diur, vesp]
+17.0 +15.8 93 +17 +17 1012.4 985.2 +11.8 +28.0
09 16.12 штиль 0 2000 м 5/5 750 м
[Sc diur, vesp]
+14.0 +12.8 92 +14 +14 1012.4 985.2
12 16.12 штиль 0 2000 м ясно +11.9 +8.0 77 +11 +11 1012.1 984.5 +10.6 +30.0
15 16.12 штиль 0 30 км 5/5 750 м
[Sc diur, vesp]
+11.3 +8.6 83 +11 +11 1013.5 985.5
18 16.12 штиль 0 30 км 4/4 750 м
[Sc diur, vesp]
+23.8 +17.6 68 +28 +34 душно 1014.5 986.4 +8.9 +24.0
21 16.12 штиль 0 30 км 4/4 600 м
[Cu med, cong]
+28.1 +20.2 62 +34 +40 очень
душно
1011.6 983.9
00 17.12 ЮЗ 1 30 км 5/5 300 м
[Cu med, cong]
+22.8 +17.1 70 +28 +28 душно 1010.6 983.1 +8.9 +28.4
03 17.12 ЮЗ 1 2000 м 5/5 600 м
[Cu med, cong]
+20.4 +15.4 73 +24 +24 комфорт 1012.0 984.7
06 17.12 штиль 0 2000 м ясно +15.5 +11.6 78 +15 +15 1011.9 984.7 +8.9 +28.4
09 17.12 штиль 0 2000 м ясно +12.4 +9.6 83 +12 +12 1013.9 986.2
12 17.12 штиль 0 2000 м 3/3 600 м
[Cu med, cong]
+11.2 +9.0 86 +11 +11 1013.7 985.8 +11.0 +28.4
15 17.12 штиль 0 30 км 4/4 600 м
[Cu med, cong]
+13.6 +10.8 83 +13 +14 1015.0 986.8
18 17.12 ЮЗ 1 30 км 5/5 750 м
[Sc diur, vesp]
+25.4 +19.6 70 +31 +35 очень
душно
1015.4 987.4 +11.0 +25.6
21 17.12 ЮЗ 2 30 км 4/4 600 м
[Cu hum]
+28.9 +21.2 63 +36 +40 очень
душно
1011.6 984.0
00 18.12 ЮВ 2 30 км 8/8 600 м
[Sc diur, vesp]
+25.1 +18.5 67 +30 +30 душно 1010.4 983.2 +11.0 +29.2
03 18.12 ЮЗ 2 2000 м 5/5 750 м
[Sc diur, vesp]
+22.7 +17.6 73 +28 +28 душно 1011.8 984.8
06 18.12 ЮЗ 1 2000 м 6/6 750 м
[Sc diur, vesp]
+19.6 +15.4 77 +23 +23 комфорт 1012.9 985.8 +11.0 +29.2
09 18.12 штиль 0 2000 м 9/9 750 м
[Sc diur, vesp]
+18.8 +15.4 81 +20 +20 1013.9 986.6
12 18.12 штиль 0 2000 м в посл. час морось 9/9 600 м
[Sc diur, vesp]
+15.6 +13.5 87 +15 +15 1016.0 988.4 20
15 18.12 штиль 0 30 км в посл. час морось 6/6 750 м
[Sc diur, vesp]
+15.2 +13.4 89 +15 +15 1017.4 989.6 1
18 18.12 штиль 0 30 км в посл. час морось 9/4 600 м
[Sc diur, vesp Cs]
+22.8 +17.6 72 +28 +33 душно 1017.9 990.0 1
21 18.12 З 1 30 км 9/5 750 м
[Sc diur, vesp Cs]
+27.4 +20.0 64 +34 +37 очень
душно
1014.8 987.2

 

Местоположение метеостанции Choix (Мексика): широта 26.73 долгота -108.20 высота над уровнем моря 238 м.

В архиве по умолчанию представлена погода в Choix за последнюю неделю. Архивные данные за месяц целиком и за предыдущие месяцы, начиная с января 2011 года, Вы можете получить, выбрав интересующий диапазон дат из раскрывающегося списка и нажав кнопку "Ввод!".

Внимание! Время в таблицах - всемирное. Для получения местного времени необходимо прибавить поправку, которая в Choix равна -6 ч.

Смотрите также архив погоды в соседних городах и на ближайших метеорологических станциях:

Погода в Ciudad Obregon (Мексика) (177 км)
Погода в Culiacan (Мексика) (229 км)
Погода в Temosachic (Мексика) (250 км)
Погода в Hidalgo del Parral (Мексика) (259 км)
Погода в Empalme (Мексика) (282 км)
Погода в Tepehuanes (Мексика) (292 км)
Погода в Guaymas (Мексика) (296 км)
Погода в Chihuahua (Мексика) (303 км)
Погода в Chihuahua University (Мексика) (303 км)
Погода в Loreto (Мексика) (319 км)

Пояснения к столбцам:

Ветер - указаны скорость ветра в м/с - средняя за 10 мин, порывы в срок и между сроками (в фигурных скобках) и направление, откуда дует ветер: С - северный, СВ - северо-восточный, В - восточный, ЮВ - юго-восточный, Ю - южный, ЮЗ - юго-западный, З - западный, СЗ - северо-западный.
Видимость - горизонтальная дальность видимости в метрах или километрах. При видимости от 1 до 10 км при отсутствии осадков обычно наблюдается дымка, при ухудшении видимости до 1 км и менее - туман. В сухую погоду видимость может ухудшаться дымом, пылью или мглою.
Явления - указаны атмосферные явления, наблюдавшиеся в срок или в последний час перед сроком; фигурными скобками обозначены явления, наблюдавшиеся между сроками (за 1-3 часа до срока); квадратными скобками обозначены град или гололедные отложения с указанием их диаметра в мм.
Облачность - указаны через наклонную черту общая и нижняя облачность в баллах и высота нижней границы облаков в метрах; квадратными скобками обозначены формы облаков: Ci - перистые, Cs - перисто-слоистые, Cc - перисто-кучевые, Ac - высококучевые, As - высокослоистые, Sc - слоисто-кучевые, Ns - слоисто-дождевые, Cu - кучевые, Cb - кучево-дождевые. Подробнее классификацию облаков см. в Атласе облаков (PDF).
T - Температура воздуха - температура, измеренная на высоте 2 м над землей.
Td - Температура точки росы - температура, при понижении до которой содержащийся в воздухе водяной пар достигнет насыщения.
f - Относительная влажность воздуха - влажноcть воздуха, измеренная на высоте 2 м над землей.
Te - Эффективная температура - температура, которую ощущает одетый по сезону человек в тени. Характеристика душности погоды. При расчете учитывается влияние влажности воздуха и скорости ветра на теплоощущения человека.
Tes - Эффективная температура на солнце - температура, которую ощущает человек, с поправкой на солнечный нагрев. Характеристика знойности погоды. Зависит от высоты солнца над горизонтом, облачности и скорости ветра. Ночью, в пасмурную погоду, а также при ветре 12 м/с и более поправка равна нулю.
P - Атмосферное давление - приведенное к уровню моря атмосферное давление.
Po - Атмосферное давление - измеренное на уровне метеостанции атмосферное давление.
Tmin - Минимальная температура - минимум температуры воздуха на высоте 2 м над землей.
Tmax - Максимальная температура - максимум температуры воздуха на высоте 2 м над землей.
R - Количество осадков - Количество выпавших осадков за период времени, мм. При наведении курсора мыши на число - период времени, за который выпало указанное количество осадков.
R24 - Количество осадков - Количество выпавших осадков за 24 часа, мм.
S - Снежный покров - Высота снежного покрова, см. При наведении курсора мыши на число - состояние снежного покрова и степень покрытия местности в баллах.